01:41
Airports
History
Links
Donate
Help keep this website running!
PayPal
Bitcoin
This page is community maintained. The information is intended for PC simulator navigation or reference.
Always use approved charts for navigation.
EDXI
Nienburg-Holzbalge
Nienburg-Holzbalge (EDXI)
Balge, Niedersachsen, Germany (31609)
4
Lat/Lng:52° 42' 34.8" N / 9° 9' 45" E
52.709667 / 9.1625
Elevation:82'ft / 25mMSL
ID / ICAO:EDXI
Runways:1
Longest:9-27
Grass 853m / 2,799ft
Nearby Weather01:20 GMT 2017-11-23
Nearby weather at ETNW, WUNSTORF located 21.0 nautical miles from EDXI
Altimeter: 29.59
Visibility: 6.2 statute miles
Wind: 11 knots (from 190°)
Temp: 11°c / 52°f
Humidity: 57.7%

METAR: ETNW 230120Z 19011KT 9999 SCT250 11/03 Q1002 BLU+

(Powered by phpweather)
Nearby VORs <50NM
Nearby NDBs
Runway 9 / 27
Dimensions:853 x 29.9m 2799' x 98'ft
Surface:Grass
Runway 9 [A]Runway 27 [B]
Heading:085°TH 265°TH
Lat:
Lng:
52° 42' 33.6"N
9° 9' 22.36"E
52° 42' 36"N
9° 10' 7.64"E
User Notes and Comments
52° 42' 34.8" N / 9° 9' 45" E
Distance To
Airport ID:
Nearby Airports
4 Verden Scharnhorst 18.5 NM
EDWV NNE 16°
4 Hodenhagen 19.2 NM
EDVH ENE 78°
(C) WUNSTORF 21.0 NM
ETNW ( WX ) SSE 148°
(C) Weser-Wuemme 23.8 NM
EDWM N
(C) Hannover 27.7 NM
EDDV ( WX ) SE 128°
(C) Bremen 27.9 NM
EDDW ( WX ) NW 326°
(U) Rotenburg Wuemme 29.8 NM
EDXQ NNE 15°
VFR Chart
Flight Planning at SkyVector.com